SPACEMOBILE-003

Last updated on Fri Oct 04 2024 00:02:04 GMT+0000 (Coordinated Universal Time)

1 61045U 24163A 24277.51229055 .00007231 00000+0 37415-3 0 9998 2 61045 52.9766 285.1812 0013564 26.1617 334.0059 15.17198640 3214
UTC large
Height (km)
Speed (km/s)
/
Latitude / Longitude
Inclination (degrees)
Orbital Period (minutes)
Azimuth
Elevation
Range (km)
Doppler Factor

Next 0 passes for location: London (51.5072 / 0.1276)

Sorry there are no passes over London.